Погода в Овьедо

Испания     43°21′51″N   5°50′21″W
темп.,
°C
ветер,
м/с
пор.,
м/с
влажн.,
%
обл.,
%
осадки,
мм/ч
давл.,
гПа
погр.,
м
23 апреля, пт
пт2323:00+9ю3380100 0.0 101650
02:00+10ю348038 0.0 101581
05:00+10ю358112 0.0 1014112
08:00+9ю3581100 0.0 1014101
11:00+17ю4651100 0.0 10131033
14:00+19ю4641100 0.0 10131982
17:00+16ююв2655100 0.2 10131283
20:00+17вюв136273 0.2 1012203
24 апреля, сб
сб2423:00+12ю2370100 0.0 101455
02:00+11ююв3374100 0.0 101361
05:00+11ю3475100 0.0 101265
08:00+11ю35785 0.0 1013100
11:00+18ю46505 0.0 10121025
14:00+22ю253999 0.0 10111956
17:00+23юв243856 0.0 10102342
20:00+17сз116985 0.0 101128
25 апреля, вс
вс2523:00+14ю2376100 0.1 101251
02:00+14ю3479100 0.3 101079
05:00+12ю348592 0.3 101071
08:00+12ю2385100 0.4 100960
11:00+17ююв1265100 0.0 1008401
14:00+20вюв1350100 0.1 10071790
17:00+16ю2472100 0.3 1007255
20:00+14ююз2285100 0.7 100774
26 апреля, пн
пн2623:00+12юв119473 1.3 100820
02:00+10ю11956 1.8 100820
05:00+9юз1195100 0.1 100713
08:00+9ю219296 0.1 100721
11:00+14ссз1176100 0.1 1006425
14:00+14ссз1183100 0.6 1006498
17:00+13с2392100 1.7 1005461
20:00+11с1298100 4.0 1006299
27 апреля, вт
вт2723:00+10с12100100 0.4 1007112
02:00+10ссз11100100 0.4 100786
05:00+10ссз11100100 0.1 100690
08:00+9с1210095 0.1 100793
11:00+10сз119195 0.1 1008291
14:00+11с1188100 0.1 1008320
17:00+13ссв227893 0.1 1007824
20:00+10с1298100 0.4 1008211